Location: Unspecified
(0.0000°N, 0.0000°E)
Time: 23:30:15
(UTC+00:00)

Vanguard 1 Rocket - Pass Details

Date: 15 December 2017
Orbit: 652 x 4225 km, 34.3° (Epoch: 22 May)

Event Time Altitude Azimuth Distance (km) Brightness Sun altitude
Rises 22:55:50 0° 315° (NW) 7,274 11.9 -62.6°
Enters shadow 23:00:01 - 318° (NW) 6,646 11.6 -63.1°
Reaches altitude 10° 23:00:20 10° 318° (NW) 6,601 - -63.1°
Maximum altitude 23:24:37 64° 38° (NE) 4,490 - -65.5°
Exits shadow 23:40:42 29° 107° (ESE) 5,470 11.1 -66.4°
Drops below altitude 10° 23:47:55 10° 115° (ESE) 6,444 11.7 -66.6°
Sets 23:52:08 0° 117° (ESE) 7,112 12.1 -66.7°
